,,,PA_Meas_PMT16A,,PR_Meas_QMR101_102,,RH_Meas_QMH101,,SR_Meas_QMS101,,TA_Meas_QMH101,,GenWind,,GenWind,
date,time,status,PA,status,PR,status,RH,status,SR,status,TA,status,DirAvg,status,SpdAvg,
2010-10-13, 00:00:05,VALID,1009.93,VALID,0,VALID,102.772,VALID,0,VALID,25.1947,VALID,326,VALID,0,
2010-10-13, 00:01:05,VALID,1009.89,VALID,0,VALID,102.742,VALID,0,VALID,25.1947,VALID,326,VALID,0,
2010-10-13, 00:02:05,VALID,1009.89,VALID,0,VALID,102.757,VALID,0,VALID,25.1947,VALID,326,VALID,0,
2010-10-13, 00:03:05,VALID,1009.88,VALID,0,VALID,102.749,VALID,0,VALID,25.1752,VALID,326,VALID,0,
2010-10-13, 00:04:05,VALID,1009.89,VALID,0,VALID,102.749,VALID,0,VALID,25.1752,VALID,326,VALID,0,
2010-10-13, 00:05:05,VALID,1009.86,VALID,0,VALID,102.734,VALID,0,VALID,25.1557,VALID,326,VALID,0,
2010-10-13, 00:06:05,VALID,1009.85,VALID,0,VALID,102.727,VALID,0,VALID,25.1557,VALID,326,VALID,0,
2010-10-13, 00:07:05,VALID,1009.83,VALID,0,VALID,102.742,VALID,0,VALID,25.1557,VALID,326,VALID,0,
2010-10-13, 00:08:05,VALID,1009.81,VALID,0,VALID,102.765,VALID,0,VALID,25.1557,VALID,326,VALID,0,
2010-10-13, 00:09:05,VALID,1009.82,VALID,0,VALID,102.749,VALID,0,VALID,25.1557,VALID,326,VALID,0,
2010-10-13, 00:10:05,VALID,1009.79,VALID,0,VALID,102.757,VALID,0,VALID,25.1557,VALID,326,VALID,0,
2010-10-13, 00:11:05,VALID,1009.79,VALID,0,VALID,102.749,VALID,0,VALID,25.1362,VALID,326,VALID,0,
2010-10-13, 00:12:05,VALID,1009.81,VALID,0,VALID,102.727,VALID,0,VALID,25.1362,VALID,326,VALID,0,
2010-10-13, 00:13:05,VALID,1009.8,VALID,0,VALID,102.688,VALID,0,VALID,25.1167,VALID,326,VALID,0,
2010-10-13, 00:14:05,VALID,1009.79,VALID,0,VALID,102.673,VALID,0,VALID,25.1167,VALID,326,VALID,0,
2010-10-13, 00:15:05,VALID,1009.8,VALID,0,VALID,102.635,VALID,0,VALID,25.1167,VALID,326,VALID,0,
2010-10-13, 00:16:05,VALID,1009.82,VALID,0,VALID,102.612,VALID,0,VALID,25.0973,VALID,326,VALID,0,
2010-10-13, 00:17:05,VALID,1009.81,VALID,0,VALID,102.643,VALID,0,VALID,25.0973,VALID,326,VALID,0,
2010-10-13, 00:18:05,VALID,1009.84,VALID,0,VALID,102.62,VALID,0,VALID,25.0583,VALID,326,VALID,0,
2010-10-13, 00:19:05,VALID,1009.82,VALID,0,VALID,102.597,VALID,0,VALID,25.0583,VALID,326,VALID,0,
2010-10-13, 00:20:05,VALID,1009.81,VALID,0,VALID,102.582,VALID,0,VALID,25.0388,VALID,326,VALID,0,
2010-10-13, 00:21:05,VALID,1009.8,VALID,0,VALID,102.612,VALID,0,VALID,25.0193,VALID,326,VALID,0,
2010-10-13, 00:22:05,VALID,1009.77,VALID,0,VALID,102.635,VALID,0,VALID,25.0193,VALID,326,VALID,0,
2010-10-13, 00:23:05,VALID,1009.72,VALID,0,VALID,102.62,VALID,0,VALID,25.0193,VALID,326,VALID,0,
2010-10-13, 00:24:05,VALID,1009.7,VALID,0,VALID,102.658,VALID,0,VALID,24.9803,VALID,326,VALID,0,
2010-10-13, 00:25:05,VALID,1009.7,VALID,0,VALID,102.688,VALID,0,VALID,24.9803,VALID,326,VALID,0,
2010-10-13, 00:26:05,VALID,1009.69,VALID,0,VALID,102.749,VALID,0,VALID,24.9608,VALID,326,VALID,0,
2010-10-13, 00:27:05,VALID,1009.67,VALID,0,VALID,102.795,VALID,0,VALID,24.9608,VALID,326,VALID,0,
2010-10-13, 00:28:05,VALID,1009.7,VALID,0,VALID,102.818,VALID,0,VALID,24.9608,VALID,326,VALID,0,
2010-10-13, 00:29:05,VALID,1009.71,VALID,0,VALID,102.849,VALID,0,VALID,24.9608,VALID,326,VALID,0,
2010-10-13, 00:30:05,VALID,1009.69,VALID,0,VALID,102.887,VALID,0,VALID,24.9413,VALID,326,VALID,0,
2010-10-13, 00:31:05,VALID,1009.69,VALID,0,VALID,102.894,VALID,0,VALID,24.9413,VALID,326,VALID,0,
2010-10-13, 00:32:05,VALID,1009.69,VALID,0,VALID,102.932,VALID,0,VALID,24.9218,VALID,326,VALID,0,
2010-10-13, 00:33:05,VALID,1009.67,VALID,0,VALID,102.917,VALID,0,VALID,24.9023,VALID,326,VALID,0,
2010-10-13, 00:34:05,VALID,1009.67,VALID,0,VALID,102.971,VALID,0,VALID,24.9237,VALID,326,VALID,0,
2010-10-13, 00:35:05,VALID,1009.62,VALID,0,VALID,103.001,VALID,0,VALID,24.9237,VALID,326,VALID,0,
2010-10-13, 00:36:05,VALID,1009.64,VALID,0,VALID,103.024,VALID,0,VALID,24.9023,VALID,326,VALID,0,
2010-10-13, 00:37:05,VALID,1009.61,VALID,0,VALID,103.062,VALID,0,VALID,24.9023,VALID,326,VALID,0,
2010-10-13, 00:38:05,VALID,1009.59,VALID,0,VALID,103.039,VALID,0,VALID,24.8633,VALID,326,VALID,0,
2010-10-13, 00:39:05,VALID,1009.58,VALID,0,VALID,103.07,VALID,0,VALID,24.842,VALID,326,VALID,0,
2010-10-13, 00:40:05,VALID,1009.55,VALID,0,VALID,103.077,VALID,0,VALID,24.8615,VALID,326,VALID,0,
2010-10-13, 00:41:05,VALID,1009.59,VALID,0,VALID,103.077,VALID,0,VALID,24.8633,VALID,326,VALID,0,
2010-10-13, 00:42:05,VALID,1009.58,VALID,0,VALID,103.115,VALID,0,VALID,24.8438,VALID,326,VALID,0,
2010-10-13, 00:43:05,VALID,1009.57,VALID,0,VALID,103.146,VALID,0,VALID,24.8438,VALID,326,VALID,0,
2010-10-13, 00:44:05,VALID,1009.6,VALID,0,VALID,103.199,VALID,0,VALID,24.8828,VALID,334,VALID,0,
2010-10-13, 00:45:05,VALID,1009.57,VALID,0,VALID,103.207,VALID,0,VALID,24.8438,VALID,334,VALID,0,
2010-10-13, 00:46:05,VALID,1009.57,VALID,0,VALID,103.176,VALID,0,VALID,24.8244,VALID,334,VALID,0,
2010-10-13, 00:47:05,VALID,1009.55,VALID,0,VALID,103.199,VALID,0,VALID,24.8244,VALID,334,VALID,0.196484,
2010-10-13, 00:48:05,VALID,1009.51,VALID,0,VALID,103.199,VALID,0,VALID,24.8244,VALID,334,VALID,0,
2010-10-13, 00:49:05,VALID,1009.52,VALID,0,VALID,103.215,VALID,0,VALID,24.8049,VALID,334,VALID,0,
2010-10-13, 00:50:05,VALID,1009.52,VALID,0,VALID,103.237,VALID,0,VALID,24.8244,VALID,62,VALID,0,
2010-10-13, 00:51:05,VALID,1009.48,VALID,0,VALID,103.268,VALID,0,VALID,24.8438,VALID,62,VALID,0,
2010-10-13, 00:52:05,VALID,1009.49,VALID,0,VALID,103.268,VALID,0,VALID,24.8438,VALID,62,VALID,0,
2010-10-13, 00:53:05,VALID,1009.48,VALID,0,VALID,103.26,VALID,0,VALID,24.8049,VALID,62,VALID,0,
2010-10-13, 00:54:05,VALID,1009.44,VALID,0,VALID,103.26,VALID,0,VALID,24.8049,VALID,62,VALID,0,
2010-10-13, 00:55:05,VALID,1009.45,VALID,0,VALID,103.253,VALID,0,VALID,24.8049,VALID,62,VALID,0,
2010-10-13, 00:56:05,VALID,1009.47,VALID,0,VALID,103.253,VALID,0,VALID,24.7854,VALID,62,VALID,0,
2010-10-13, 00:57:05,VALID,1009.46,VALID,0,VALID,103.245,VALID,0,VALID,24.7659,VALID,62,VALID,0,
2010-10-13, 00:58:05,VALID,1009.48,VALID,0,VALID,103.23,VALID,0,VALID,24.7483,VALID,62,VALID,0,
2010-10-13, 00:59:05,VALID,1009.49,VALID,0,VALID,103.222,VALID,0,VALID,24.7269,VALID,62,VALID,0,
2010-10-13, 01:00:05,VALID,1009.48,VALID,0,VALID,103.245,VALID,0,VALID,24.7269,VALID,62,VALID,0,
2010-10-13, 01:01:05,VALID,1009.47,VALID,0,VALID,103.245,VALID,0,VALID,24.7074,VALID,62,VALID,0,
2010-10-13, 01:02:05,VALID,1009.44,VALID,0,VALID,103.245,VALID,0,VALID,24.6879,VALID,62,VALID,0,
2010-10-13, 01:03:05,VALID,1009.41,VALID,0,VALID,103.23,VALID,0,VALID,24.6684,VALID,62,VALID,0,
2010-10-13, 01:04:05,VALID,1009.39,VALID,0,VALID,103.23,VALID,0,VALID,24.6489,VALID,62,VALID,0,
2010-10-13, 01:05:05,VALID,1009.36,VALID,0,VALID,103.245,VALID,0,VALID,24.6294,VALID,62,VALID,0,
2010-10-13, 01:06:05,VALID,1009.32,VALID,0,VALID,103.268,VALID,0.105969,VALID,24.6081,VALID,62,VALID,0,
2010-10-13, 01:07:05,VALID,1009.35,VALID,0,VALID,103.314,VALID,0,VALID,24.5905,VALID,62,VALID,0,
2010-10-13, 01:08:05,VALID,1009.35,VALID,0,VALID,103.321,VALID,0,VALID,24.5905,VALID,61,VALID,0,
2010-10-13, 01:09:05,VALID,1009.35,VALID,0,VALID,103.337,VALID,0,VALID,24.5905,VALID,61,VALID,0,
2010-10-13, 01:10:05,VALID,1009.35,VALID,0,VALID,103.352,VALID,0,VALID,24.571,VALID,68,VALID,1.09297,
2010-10-13, 01:11:05,VALID,1009.36,VALID,0,VALID,103.367,VALID,0,VALID,24.6118,VALID,75,VALID,0.330078,
2010-10-13, 01:12:05,VALID,1009.35,VALID,0,VALID,103.375,VALID,0,VALID,24.5905,VALID,73,VALID,0.394141,
2010-10-13, 01:13:05,VALID,1009.35,VALID,0,VALID,103.375,VALID,0,VALID,24.571,VALID,73,VALID,0.181641,
2010-10-13, 01:14:05,VALID,1009.35,VALID,0,VALID,103.359,VALID,0,VALID,24.5515,VALID,73,VALID,0.174609,
2010-10-13, 01:15:05,VALID,1009.31,VALID,0,VALID,103.39,VALID,0,VALID,24.532,VALID,73,VALID,0,
2010-10-13, 01:16:05,VALID,1009.3,VALID,0,VALID,103.382,VALID,0,VALID,24.532,VALID,73,VALID,0.3,
2010-10-13, 01:17:05,VALID,1009.3,VALID,0,VALID,103.375,VALID,0,VALID,24.5125,VALID,73,VALID,0.350781,
2010-10-13, 01:18:05,VALID,1009.29,VALID,0,VALID,103.405,VALID,0,VALID,24.5125,VALID,43,VALID,0.197266,
2010-10-13, 01:19:05,VALID,1009.28,VALID,0,VALID,103.413,VALID,0,VALID,24.4735,VALID,43,VALID,0,
2010-10-13, 01:20:05,VALID,1009.31,VALID,0,VALID,103.436,VALID,0,VALID,24.4754,VALID,43,VALID,0.606641,
2010-10-13, 01:21:05,VALID,1009.29,VALID,0,VALID,103.443,VALID,0,VALID,24.493,VALID,16,VALID,0.475781,
2010-10-13, 01:22:05,VALID,1009.29,VALID,0,VALID,103.474,VALID,0,VALID,24.4735,VALID,16,VALID,0,
2010-10-13, 01:23:05,VALID,1009.3,VALID,0,VALID,103.489,VALID,0,VALID,24.493,VALID,37,VALID,0.503906,
2010-10-13, 01:24:05,VALID,1009.29,VALID,0,VALID,103.512,VALID,0,VALID,24.493,VALID,45,VALID,0.350391,
2010-10-13, 01:25:05,VALID,1009.3,VALID,0,VALID,103.489,VALID,0,VALID,24.4949,VALID,26,VALID,0.332422,
2010-10-13, 01:26:05,VALID,1009.3,VALID,0,VALID,103.504,VALID,0,VALID,24.454,VALID,57,VALID,0.412891,
2010-10-13, 01:27:05,VALID,1009.28,VALID,0,VALID,103.489,VALID,0,VALID,24.4345,VALID,36,VALID,0.473828,
2010-10-13, 01:28:05,VALID,1009.24,VALID,0,VALID,103.489,VALID,0,VALID,24.454,VALID,40,VALID,0.470703,
2010-10-13, 01:29:05,VALID,1009.21,VALID,0,VALID,103.497,VALID,0,VALID,24.4345,VALID,40,VALID,0.171875,
2010-10-13, 01:30:05,VALID,1009.2,VALID,0,VALID,103.481,VALID,0,VALID,24.4345,VALID,40,VALID,0.324609,
2010-10-13, 01:31:05,VALID,1009.16,VALID,0,VALID,103.459,VALID,0,VALID,24.4345,VALID,40,VALID,0.152734,
2010-10-13, 01:32:05,VALID,1009.14,VALID,0,VALID,103.474,VALID,0,VALID,24.415,VALID,40,VALID,0.390234,
2010-10-13, 01:33:05,VALID,1009.15,VALID,0,VALID,103.474,VALID,0,VALID,24.4364,VALID,73,VALID,0.323438,
2010-10-13, 01:34:05,VALID,1009.13,VALID,0,VALID,103.443,VALID,0,VALID,24.415,VALID,73,VALID,0.0984375,
2010-10-13, 01:35:05,VALID,1009.12,VALID,0,VALID,103.451,VALID,0,VALID,24.3956,VALID,73,VALID,0.192188,
2010-10-13, 01:36:05,VALID,1009.12,VALID,0,VALID,103.42,VALID,0,VALID,24.3956,VALID,73,VALID,0.344531,
2010-10-13, 01:37:05,VALID,1009.11,VALID,0,VALID,103.413,VALID,0.105969,VALID,24.3937,VALID,48,VALID,0.148828,
2010-10-13, 01:38:05,VALID,1009.08,VALID,0,VALID,103.443,VALID,0.105969,VALID,24.3742,VALID,48,VALID,0.243359,
2010-10-13, 01:39:05,VALID,1009.09,VALID,0,VALID,103.405,VALID,0,VALID,24.3956,VALID,48,VALID,0.0761719,
2010-10-13, 01:40:05,VALID,1009.1,VALID,0,VALID,103.405,VALID,0.105969,VALID,24.3742,VALID,62,VALID,0.401172,
2010-10-13, 01:41:05,VALID,1009.08,VALID,0,VALID,103.405,VALID,0,VALID,24.3742,VALID,62,VALID,0.0121094,
2010-10-13, 01:42:05,VALID,1009.06,VALID,0,VALID,103.39,VALID,0.105969,VALID,24.3547,VALID,62,VALID,0.293359,
2010-10-13, 01:43:05,VALID,1009.07,VALID,0,VALID,103.398,VALID,0.105969,VALID,24.3547,VALID,62,VALID,0.204297,
2010-10-13, 01:44:05,VALID,1009.05,VALID,0,VALID,103.398,VALID,0.105969,VALID,24.3352,VALID,62,VALID,0,
2010-10-13, 01:45:05,VALID,1009.05,VALID,0,VALID,103.398,VALID,0.105969,VALID,24.3566,VALID,60,VALID,0,
2010-10-13, 01:46:05,VALID,1009.07,VALID,0,VALID,103.405,VALID,0.105969,VALID,24.3352,VALID,60,VALID,0,
2010-10-13, 01:47:05,VALID,1009.07,VALID,0,VALID,103.405,VALID,0,VALID,24.3158,VALID,60,VALID,0,
2010-10-13, 01:48:05,VALID,1009.07,VALID,0,VALID,103.398,VALID,0.105969,VALID,24.3176,VALID,60,VALID,0,
2010-10-13, 01:49:05,VALID,1009.02,VALID,0,VALID,103.42,VALID,0,VALID,24.3176,VALID,60,VALID,0,
2010-10-13, 01:50:05,VALID,1009.05,VALID,0,VALID,103.398,VALID,0,VALID,24.2963,VALID,60,VALID,0,
2010-10-13, 01:51:05,VALID,1009.02,VALID,0,VALID,103.42,VALID,0.105969,VALID,24.2768,VALID,60,VALID,0,
2010-10-13, 01:52:05,VALID,1008.98,VALID,0,VALID,103.413,VALID,0,VALID,24.3,VALID,60,VALID,0,
2010-10-13, 01:53:05,VALID,1008.95,VALID,0,VALID,103.436,VALID,0,VALID,24.2786,VALID,61,VALID,0.0730469,
2010-10-13, 01:54:05,VALID,1008.93,VALID,0,VALID,103.451,VALID,0,VALID,24.2786,VALID,62,VALID,0.326562,
2010-10-13, 01:55:05,VALID,1008.92,VALID,0,VALID,103.443,VALID,0,VALID,24.2786,VALID,62,VALID,0.518359,
2010-10-13, 01:56:05,VALID,1008.88,VALID,0,VALID,103.459,VALID,0,VALID,24.2981,VALID,62,VALID,0.401953,
2010-10-13, 01:57:05,VALID,1008.89,VALID,0,VALID,103.459,VALID,0,VALID,24.2981,VALID,62,VALID,0.769922,
2010-10-13, 01:58:05,VALID,1008.9,VALID,0,VALID,103.466,VALID,0,VALID,24.2981,VALID,62,VALID,0.642187,
2010-10-13, 01:59:05,VALID,1008.9,VALID,0,VALID,103.459,VALID,0,VALID,24.3389,VALID,60,VALID,1.21289,
2010-10-13, 02:00:05,VALID,1008.9,VALID,0,VALID,103.443,VALID,0,VALID,24.3566,VALID,66,VALID,0.899609,
2010-10-13, 02:01:05,VALID,1008.93,VALID,0,VALID,103.398,VALID,0,VALID,24.3779,VALID,67,VALID,0.410156,
2010-10-13, 02:02:05,VALID,1008.93,VALID,0,VALID,103.382,VALID,0,VALID,24.3566,VALID,67,VALID,0.0898438,
2010-10-13, 02:03:05,VALID,1008.9,VALID,0,VALID,103.375,VALID,0,VALID,24.3761,VALID,56,VALID,0.492578,
2010-10-13, 02:04:05,VALID,1008.89,VALID,0,VALID,103.314,VALID,0,VALID,24.3761,VALID,76,VALID,0.594531,
2010-10-13, 02:05:05,VALID,1008.87,VALID,0,VALID,103.306,VALID,0,VALID,24.3761,VALID,79,VALID,0.670703,
2010-10-13, 02:06:05,VALID,1008.86,VALID,0,VALID,103.291,VALID,0,VALID,24.3956,VALID,65,VALID,0.302734,
2010-10-13, 02:07:05,VALID,1008.84,VALID,0,VALID,103.283,VALID,0,VALID,24.3761,VALID,65,VALID,0.423047,
2010-10-13, 02:08:05,VALID,1008.87,VALID,0,VALID,103.26,VALID,0,VALID,24.3956,VALID,75,VALID,0.362891,
2010-10-13, 02:09:05,VALID,1008.84,VALID,0,VALID,103.253,VALID,0,VALID,24.4364,VALID,34,VALID,0.420703,
2010-10-13, 02:10:05,VALID,1008.84,VALID,0,VALID,103.245,VALID,0,VALID,24.3956,VALID,36,VALID,0.886328,
2010-10-13, 02:11:05,VALID,1008.87,VALID,0,VALID,103.207,VALID,0,VALID,24.415,VALID,41,VALID,0.149219,
2010-10-13, 02:12:05,VALID,1008.83,VALID,0,VALID,103.199,VALID,0,VALID,24.415,VALID,41,VALID,0.246875,
2010-10-13, 02:13:05,VALID,1008.87,VALID,0,VALID,103.161,VALID,0,VALID,24.4559,VALID,41,VALID,0.0566406,
2010-10-13, 02:14:05,VALID,1008.84,VALID,0,VALID,103.176,VALID,0,VALID,24.4559,VALID,46,VALID,0,
2010-10-13, 02:15:05,VALID,1008.81,VALID,0,VALID,103.131,VALID,0,VALID,24.4364,VALID,42,VALID,0.403516,
2010-10-13, 02:16:05,VALID,1008.77,VALID,0,VALID,103.123,VALID,0,VALID,24.4345,VALID,53,VALID,0.632422,
2010-10-13, 02:17:04,VALID,1008.73,VALID,0,VALID,103.093,VALID,0,VALID,24.415,VALID,51,VALID,0.477344,
2010-10-13, 02:18:04,VALID,1008.7,VALID,0,VALID,103.07,VALID,0,VALID,24.4345,VALID,55,VALID,0.501562,
2010-10-13, 02:19:04,VALID,1008.67,VALID,0,VALID,103.062,VALID,0,VALID,24.415,VALID,54,VALID,0.0121094,
2010-10-13, 02:20:04,VALID,1008.65,VALID,0,VALID,103.062,VALID,0,VALID,24.4345,VALID,73,VALID,0.585547,
2010-10-13, 02:21:04,VALID,1008.63,VALID,0,VALID,103.054,VALID,0,VALID,24.415,VALID,62,VALID,0.84375,
2010-10-13, 02:22:04,VALID,1008.62,VALID,0,VALID,103.054,VALID,0,VALID,24.415,VALID,48,VALID,0.244531,
2010-10-13, 02:23:04,VALID,1008.63,VALID,0,VALID,103.032,VALID,0,VALID,24.415,VALID,77,VALID,0.616016,
2010-10-13, 02:24:04,VALID,1008.66,VALID,0,VALID,103.047,VALID,0,VALID,24.3956,VALID,56,VALID,0.697656,
2010-10-13, 02:25:04,VALID,1008.64,VALID,0,VALID,103.054,VALID,0,VALID,24.4169,VALID,47,VALID,0.13125,
2010-10-13, 02:26:04,VALID,1008.64,VALID,0,VALID,103.047,VALID,0,VALID,24.415,VALID,47,VALID,0.221484,
2010-10-13, 02:27:04,VALID,1008.68,VALID,0,VALID,103.039,VALID,0,VALID,24.3761,VALID,47,VALID,0,
2010-10-13, 02:28:04,VALID,1008.66,VALID,0,VALID,103.009,VALID,0,VALID,24.3974,VALID,47,VALID,0.350391,
2010-10-13, 02:29:04,VALID,1008.68,VALID,0,VALID,103.032,VALID,0,VALID,24.3761,VALID,68,VALID,0.453125,
2010-10-13, 02:30:04,VALID,1008.72,VALID,0,VALID,103.054,VALID,0,VALID,24.3566,VALID,68,VALID,0.05625,
2010-10-13, 02:31:04,VALID,1008.71,VALID,0,VALID,103.062,VALID,0,VALID,24.3566,VALID,68,VALID,0,
2010-10-13, 02:32:04,VALID,1008.68,VALID,0,VALID,103.077,VALID,0,VALID,24.3371,VALID,68,VALID,0,
2010-10-13, 02:33:04,VALID,1008.65,VALID,0,VALID,103.085,VALID,0,VALID,24.3371,VALID,56,VALID,0.1,
2010-10-13, 02:34:04,VALID,1008.62,VALID,0,VALID,103.1,VALID,0,VALID,24.3176,VALID,56,VALID,0,
2010-10-13, 02:35:04,VALID,1008.59,VALID,0,VALID,103.115,VALID,0,VALID,24.3371,VALID,56,VALID,0.242188,
2010-10-13, 02:36:04,VALID,1008.62,VALID,0,VALID,103.108,VALID,0,VALID,24.3176,VALID,56,VALID,0.0832031,
2010-10-13, 02:37:04,VALID,1008.62,VALID,0,VALID,103.123,VALID,0,VALID,24.2981,VALID,56,VALID,0,
2010-10-13, 02:38:04,VALID,1008.61,VALID,0,VALID,103.108,VALID,0,VALID,24.2981,VALID,56,VALID,0,
2010-10-13, 02:39:04,VALID,1008.62,VALID,0,VALID,103.138,VALID,0,VALID,24.2786,VALID,56,VALID,0,
2010-10-13, 02:40:04,VALID,1008.64,VALID,0,VALID,103.146,VALID,0,VALID,24.2591,VALID,56,VALID,0,
2010-10-13, 02:41:04,VALID,1008.6,VALID,0,VALID,103.169,VALID,0,VALID,24.2591,VALID,56,VALID,0,
2010-10-13, 02:42:04,VALID,1008.61,VALID,0,VALID,103.184,VALID,0,VALID,24.2202,VALID,56,VALID,0.0636719,
2010-10-13, 02:43:04,VALID,1008.57,VALID,0,VALID,103.199,VALID,0,VALID,24.2415,VALID,56,VALID,0.288672,
2010-10-13, 02:44:04,VALID,1008.55,VALID,0,VALID,103.222,VALID,0,VALID,24.1812,VALID,56,VALID,0.0542969,
2010-10-13, 02:45:04,VALID,1008.59,VALID,0,VALID,103.237,VALID,0,VALID,24.2025,VALID,56,VALID,0.100781,
2010-10-13, 02:46:04,VALID,1008.59,VALID,0,VALID,103.291,VALID,0,VALID,24.1812,VALID,56,VALID,0.0328125,
2010-10-13, 02:47:04,VALID,1008.58,VALID,0,VALID,103.298,VALID,0,VALID,24.1617,VALID,56,VALID,0.123047,
2010-10-13, 02:48:04,VALID,1008.59,VALID,0,VALID,103.337,VALID,0,VALID,24.1617,VALID,56,VALID,0,
2010-10-13, 02:49:04,VALID,1008.6,VALID,0,VALID,103.329,VALID,0,VALID,24.1422,VALID,56,VALID,0.117188,
2010-10-13, 02:50:04,VALID,1008.59,VALID,0,VALID,103.352,VALID,0,VALID,24.1422,VALID,56,VALID,0.445313,
2010-10-13, 02:51:04,VALID,1008.6,VALID,0,VALID,103.359,VALID,0,VALID,24.1422,VALID,56,VALID,0.239453,
2010-10-13, 02:52:04,VALID,1008.6,VALID,0,VALID,103.382,VALID,0,VALID,24.1227,VALID,56,VALID,0.0078125,
2010-10-13, 02:53:04,VALID,1008.61,VALID,0,VALID,103.398,VALID,0,VALID,24.1422,VALID,56,VALID,0,
2010-10-13, 02:54:04,VALID,1008.63,VALID,0,VALID,103.42,VALID,0,VALID,24.1422,VALID,56,VALID,0,
2010-10-13, 02:55:04,VALID,1008.64,VALID,0,VALID,103.451,VALID,0,VALID,24.1227,VALID,56,VALID,0,
2010-10-13, 02:56:04,VALID,1008.64,VALID,0,VALID,103.451,VALID,0,VALID,24.1422,VALID,56,VALID,0,
2010-10-13, 02:57:04,VALID,1008.62,VALID,0,VALID,103.451,VALID,0,VALID,24.1422,VALID,56,VALID,0,
2010-10-13, 02:58:04,VALID,1008.6,VALID,0,VALID,103.474,VALID,0,VALID,24.1422,VALID,56,VALID,0,
2010-10-13, 02:59:04,VALID,1008.6,VALID,0,VALID,103.474,VALID,0,VALID,24.1227,VALID,56,VALID,0,
2010-10-13, 03:00:04,VALID,1008.58,VALID,0,VALID,103.474,VALID,0,VALID,24.1227,VALID,56,VALID,0,
2010-10-13, 03:01:04,VALID,1008.57,VALID,0,VALID,103.504,VALID,0,VALID,24.1032,VALID,56,VALID,0,
2010-10-13, 03:02:04,VALID,1008.56,VALID,0,VALID,103.489,VALID,0,VALID,24.1422,VALID,56,VALID,0,
2010-10-13, 03:03:04,VALID,1008.56,VALID,0,VALID,103.504,VALID,0,VALID,24.1245,VALID,56,VALID,0,
2010-10-13, 03:04:04,VALID,1008.55,VALID,0,VALID,103.527,VALID,0,VALID,24.1032,VALID,56,VALID,0,
2010-10-13, 03:05:04,VALID,1008.55,VALID,0,VALID,103.504,VALID,0,VALID,24.1227,VALID,56,VALID,0.124609,
2010-10-13, 03:06:04,VALID,1008.57,VALID,0,VALID,103.527,VALID,0,VALID,24.1227,VALID,56,VALID,0.254687,
2010-10-13, 03:07:04,VALID,1008.56,VALID,0,VALID,103.527,VALID,0.105969,VALID,24.1404,VALID,56,VALID,0.276953,
2010-10-13, 03:08:04,VALID,1008.56,VALID,0,VALID,103.535,VALID,0.105969,VALID,24.1404,VALID,56,VALID,0.216406,
2010-10-13, 03:09:04,VALID,1008.54,VALID,0,VALID,103.542,VALID,0.105969,VALID,24.1404,VALID,56,VALID,0.203516,
2010-10-13, 03:10:04,VALID,1008.55,VALID,0,VALID,103.527,VALID,0.105969,VALID,24.1599,VALID,56,VALID,0,
2010-10-13, 03:11:04,VALID,1008.54,VALID,0,VALID,103.542,VALID,0.105969,VALID,24.1404,VALID,56,VALID,0,
2010-10-13, 03:12:04,VALID,1008.57,VALID,0,VALID,103.52,VALID,0.105969,VALID,24.1812,VALID,56,VALID,0,
2010-10-13, 03:13:04,VALID,1008.58,VALID,0,VALID,103.535,VALID,0.105969,VALID,24.1599,VALID,56,VALID,0,
2010-10-13, 03:14:04,VALID,1008.57,VALID,0,VALID,103.527,VALID,0.105969,VALID,24.1599,VALID,56,VALID,0,
2010-10-13, 03:15:04,VALID,1008.59,VALID,0,VALID,103.535,VALID,0.105969,VALID,24.1599,VALID,56,VALID,0,
2010-10-13, 03:16:04,VALID,1008.58,VALID,0,VALID,103.535,VALID,0.105969,VALID,24.1599,VALID,56,VALID,0,
2010-10-13, 03:17:04,VALID,1008.55,VALID,0,VALID,103.55,VALID,0.105969,VALID,24.1599,VALID,56,VALID,0,
2010-10-13, 03:18:04,VALID,1008.57,VALID,0,VALID,103.527,VALID,0.105969,VALID,24.1599,VALID,56,VALID,0,
2010-10-13, 03:19:04,VALID,1008.56,VALID,0,VALID,103.542,VALID,0.105969,VALID,24.1599,VALID,56,VALID,0,
2010-10-13, 03:20:04,VALID,1008.59,VALID,0,VALID,103.535,VALID,0.105969,VALID,24.1793,VALID,56,VALID,0,
2010-10-13, 03:21:04,VALID,1008.57,VALID,0,VALID,103.558,VALID,0.105969,VALID,24.1599,VALID,56,VALID,0,
2010-10-13, 03:22:04,VALID,1008.59,VALID,0,VALID,103.558,VALID,0,VALID,24.1812,VALID,56,VALID,0,
2010-10-13, 03:23:04,VALID,1008.62,VALID,0,VALID,103.573,VALID,0,VALID,24.2007,VALID,56,VALID,0,
2010-10-13, 03:24:04,VALID,1008.61,VALID,0,VALID,103.565,VALID,0,VALID,24.1812,VALID,56,VALID,0,
2010-10-13, 03:25:04,VALID,1008.62,VALID,0,VALID,103.573,VALID,0,VALID,24.1812,VALID,56,VALID,0,
2010-10-13, 03:26:04,VALID,1008.63,VALID,0,VALID,103.573,VALID,0,VALID,24.1617,VALID,56,VALID,0,
2010-10-13, 03:27:04,VALID,1008.61,VALID,0,VALID,103.588,VALID,0,VALID,24.1422,VALID,56,VALID,0,
2010-10-13, 03:28:04,VALID,1008.59,VALID,0,VALID,103.565,VALID,0,VALID,24.1422,VALID,56,VALID,0,
2010-10-13, 03:29:04,VALID,1008.58,VALID,0,VALID,103.565,VALID,0,VALID,24.1422,VALID,56,VALID,0.112109,
2010-10-13, 03:30:04,VALID,1008.57,VALID,0,VALID,103.565,VALID,0,VALID,24.1635,VALID,56,VALID,0,
2010-10-13, 03:31:04,VALID,1008.6,VALID,0,VALID,103.55,VALID,0,VALID,24.1227,VALID,56,VALID,0,
2010-10-13, 03:32:04,VALID,1008.59,VALID,0,VALID,103.558,VALID,0,VALID,24.1227,VALID,56,VALID,0,
2010-10-13, 03:33:04,VALID,1008.57,VALID,0,VALID,103.535,VALID,0,VALID,24.1227,VALID,56,VALID,0,
2010-10-13, 03:34:04,VALID,1008.59,VALID,0,VALID,103.542,VALID,0,VALID,24.1422,VALID,56,VALID,0,
2010-10-13, 03:35:04,VALID,1008.59,VALID,0,VALID,103.535,VALID,0,VALID,24.1227,VALID,56,VALID,0,
2010-10-13, 03:36:04,VALID,1008.59,VALID,0,VALID,103.55,VALID,0,VALID,24.1422,VALID,56,VALID,0,
2010-10-13, 03:37:04,VALID,1008.59,VALID,0,VALID,103.542,VALID,0.105969,VALID,24.1209,VALID,56,VALID,0,
2010-10-13, 03:38:04,VALID,1008.57,VALID,0,VALID,103.542,VALID,0.105969,VALID,24.1209,VALID,56,VALID,0,
2010-10-13, 03:39:04,VALID,1008.58,VALID,0,VALID,103.52,VALID,0.105969,VALID,24.1617,VALID,56,VALID,0,
2010-10-13, 03:40:04,VALID,1008.61,VALID,0,VALID,103.535,VALID,0.105969,VALID,24.1404,VALID,56,VALID,0,
2010-10-13, 03:41:04,VALID,1008.65,VALID,0,VALID,103.527,VALID,0.105969,VALID,24.1617,VALID,56,VALID,0,
2010-10-13, 03:42:04,VALID,1008.64,VALID,0,VALID,103.527,VALID,0.105969,VALID,24.1617,VALID,56,VALID,0,
2010-10-13, 03:43:04,VALID,1008.68,VALID,0,VALID,103.542,VALID,0.105969,VALID,24.1404,VALID,56,VALID,0,
2010-10-13, 03:44:04,VALID,1008.69,VALID,0,VALID,103.55,VALID,0.105969,VALID,24.1617,VALID,56,VALID,0,
2010-10-13, 03:45:04,VALID,1008.7,VALID,0,VALID,103.565,VALID,0.105969,VALID,24.1599,VALID,56,VALID,0,
2010-10-13, 03:46:04,VALID,1008.73,VALID,0,VALID,103.55,VALID,0.105969,VALID,24.1812,VALID,56,VALID,0,
2010-10-13, 03:47:04,VALID,1008.73,VALID,0,VALID,103.558,VALID,0.105969,VALID,24.2007,VALID,56,VALID,0,
2010-10-13, 03:48:04,VALID,1008.72,VALID,0,VALID,103.55,VALID,0.105969,VALID,24.2202,VALID,56,VALID,0,
2010-10-13, 03:49:04,VALID,1008.73,VALID,0,VALID,103.55,VALID,0.105969,VALID,24.2202,VALID,56,VALID,0,
2010-10-13, 03:50:04,VALID,1008.71,VALID,0,VALID,103.581,VALID,0.105969,VALID,24.2183,VALID,56,VALID,0,
2010-10-13, 03:51:04,VALID,1008.7,VALID,0,VALID,103.588,VALID,0.105969,VALID,24.2183,VALID,56,VALID,0.243359,
2010-10-13, 03:52:04,VALID,1008.71,VALID,0,VALID,103.573,VALID,0,VALID,24.2396,VALID,56,VALID,0.313281,